POPACS 1

Last updated on Wed Oct 29 2025 00:03:53 GMT+0000 (Coordinated Universal Time)

1 39268U 13055D 25301.35713741 .00126894 36200-5 65711-3 0 9993 2 39268 80.9608 270.4554 0160693 208.6678 150.5676 15.64508666636440
UTC large
Height (km)
Speed (km/s)
/
Latitude / Longitude
Inclination (degrees)
Orbital Period (minutes)
Azimuth
Elevation
Range (km)
Doppler Factor

Next 0 passes for location: London (51.5072 / 0.1276)

Sorry there are no passes over London.